Regional Weather Roundup
Issued by NWS

Home | Current Version | Previous Version | Text Only | Print | Product List | Glossary On
Versions: 1 2 3 4 5 6 7 8 9 10 11 12 13 14 15 16 17 18 19 20 21 22 23 24 25 26 27 28 29 30 31 32 33 34 35 36 37 38 39 40 41 42 43 44 45 46 47 48 49 50
000
ASUS43 KDMX 241201
RWRIA

WEATHER ROUNDUP FOR IOWA
NATIONAL WEATHER SERVICE DES MOINES IA
700 AM CDT WED MAY 24 2017

NOTE: "FAIR" INDICATES FEW OR NO CLOUDS BELOW 12,000 FEET WITH NO
SIGNIFICANT WEATHER AND/OR OBSTRUCTIONS TO VISIBILITY.

* - THESE STATIONS ARE NOT NWS STATIONS...THUS NOT UNDER NWS
QUALITY CONTROL.  THEY ALSO DO NOT REPORT WEATHER SUCH
AS PRECIPITATION OR FOG.

IAZ001>003-012>014-020>022-031>034-043>046-241300-
   NORTHWEST IOWA

CITY           SKY/WX    TMP DP  RH WIND       PRES   REMARKS
CARROLL *      SUNNY     48  48 100 N10       29.74R
CHEROKEE *     SUNNY     45  45 100 N6        29.78R
DENISON *      MOSUNNY   46  45  93 CALM      29.78R
LE MARS *      SUNNY     46  45  93 N5        29.81S
ORANGE CITY *  SUNNY     45  45 100 N8        29.80R
SHELDON *      PTSUNNY   43  43 100 NW9         N/A
SIOUX CITY     MOCLDY    46  46 100 NW12      29.81R
6HR MIN TEMP:  45; 6HR MAX TEMP:  48;

SPENCER        SUNNY     47  45  93 N13       29.78R
6HR MIN TEMP:  45; 6HR MAX TEMP:  50;

STORM LAKE *   SUNNY     46  45  93 N12       29.76S
$$

IAZ055>058-069>071-079>083-090>094-241300-
   SOUTHWEST IOWA

CITY           SKY/WX    TMP DP  RH WIND       PRES   REMARKS
ATLANTIC *     CLOUDY    50  48  93 N14       29.73S
AUDUBON *      PTSUNNY   48  46  93 N9        29.74S
CLARINDA *     CLOUDY    52  48  87 N14       29.74S
COUNCIL BLFS * MOSUNNY   48  48 100 NW12G20   29.76S
CRESTON *      CLOUDY    50  50 100 N13G20    29.70S
HARLAN  *      MOSUNNY   48  48 100 N9        29.78S
LAMONI         CLOUDY    51  49  92 NW9       29.67S
6HR MIN TEMP:  44; 6HR MAX TEMP:  51; 6HR PCP:  0.02;

RED OAK *      CLOUDY    52  48  87 NW10      29.74S
SHENANDOAH *   CLOUDY    52  48  87 NW13G18   29.75S
$$

IAZ047>049-059>061-072>074-084-241300-
   CENTRAL IOWA

CITY           SKY/WX    TMP DP  RH WIND       PRES   REMARKS
AMES           CLOUDY    52  50  93 N7        29.69S
6HR MIN TEMP:  51; 6HR MAX TEMP:  52; 6HR PCP:  0.14;

ANKENY *       CLOUDY    52  50  93 N9G15     29.69S
BOONE *        CLOUDY    50  50 100 N12       29.69S
CHARITON *     CLOUDY    50  50 100 NW6       29.66S
DES MOINES     CLOUDY    53  51  93 N10       29.67S
6HR MIN TEMP:  51; 6HR MAX TEMP:  53; 6HR PCP:  0.16;

GRINNELL*      CLOUDY    51  50  94 N9        29.67S
KNOXVILLE *    PTSUNNY   52  50  93 N8        29.65R
MARSHALLTOWN   CLOUDY    51  50  96 N12       29.67S
6HR MIN TEMP:  51; 6HR MAX TEMP:  52; 6HR PCP:  0.03;

NEWTON *       CLOUDY    52  50  93 N10       29.66S
PELLA *        CLOUDY    51  51  97 N5        29.67S
PERRY *        CLOUDY    52  49  92 N14       29.71R
$$

IAZ004>006-015-016-023>025-035-036-241300-
   NORTH CENTRAL IOWA

CITY           SKY/WX    TMP DP  RH WIND       PRES   REMARKS
ALGONA *       MOSUNNY   46  46 100 N9        29.75R
CLARION *      PTSUNNY   48  48 100 N14       29.72R
ESTHERVILLE    CLOUDY    45  45 100 N13       29.76S
6HR MIN TEMP:  44; 6HR MAX TEMP:  50;

FORT DODGE *   PTSUNNY   50  46  87 N6        29.74R
MASON CITY     CLOUDY    48  46  93 N13       29.73S
6HR MIN TEMP:  47; 6HR MAX TEMP:  51;

FOREST CITY *    N/A     48  43  81 N9        29.73S
WEBSTER CITY * CLOUDY    50  48  93 N13       29.69S
IOWA FALLS *   CLOUDY    51  49  91 N12       29.70S
$$

IAZ007>011-017>019-026>030-037>042-050>054-066-241300-
   NORTHEAST IOWA

CITY           SKY/WX    TMP DP  RH WIND       PRES   REMARKS
CEDAR RAPIDS   CLOUDY    52  52 100 N10       29.64R
6HR MIN TEMP:  44; 6HR MAX TEMP:  52;

CHARLES CITY * CLOUDY    50  50 100 NE10      29.70S
CLINTON *      MOSUNNY   52  51  97 NE8       29.64S FOG
DECORAH *      CLOUDY    50  48  93 N8        29.68F
DUBUQUE        CLOUDY    51  49  92 NE10      29.65R
6HR MIN TEMP:  51; 6HR MAX TEMP:  52; 6HR PCP: TRACE;

MONTICELLO *   CLOUDY    54  52  94 NE8G17    29.64S
OELWEIN *      CLOUDY    52  50  93 NE13      29.68R
WATERLOO       CLOUDY    51  49  92 N10       29.67S
6HR MIN TEMP:  51; 6HR MAX TEMP:  52; 6HR PCP:  0.02;

$$

IAZ064-065-067-068-078-241300-
   EAST CENTRAL IOWA

CITY           SKY/WX    TMP DP  RH WIND       PRES   REMARKS
DAVENPORT      CLOUDY    51  50  96 NE9       29.63S FOG
6HR MIN TEMP:  46; 6HR MAX TEMP:  51;

IOWA CITY      CLOUDY    53  49  86 NW3       29.65S
6HR MIN TEMP:  48; 6HR MAX TEMP:  53;

MT. PLEASANT * PTSUNNY   48  48 100 NW7       29.63S
MUSCATINE *    CLOUDY    52  50  93 N7        29.64R
QUAD CITIES    CLOUDY    52  48  86 N3        29.62S
6HR MIN TEMP:  46; 6HR MAX TEMP:  52;

$$

IAZ062-063-075>077-085>089-095>099-241300-
   SOUTHEAST IOWA

CITY           SKY/WX    TMP DP  RH WIND       PRES   REMARKS
BURLINGTON     SUNNY     49  48  97 N7        29.62R
6HR MIN TEMP:  47; 6HR MAX TEMP:  49;

FAIRFIELD *    FOG       46  45  93 NW9       29.64R VSB<1/4
FORT MADISON * MOSUNNY   48  48 100 NW6       29.63S
KEOKUK *       PTSUNNY   48  46  93 NW6       29.62S
OSKALOOSA *    CLOUDY    48  48  97 NW5       29.65S FOG
OTTUMWA        CLOUDY    49  49 100 NW6       29.65R FOG
6HR MIN TEMP:  44; 6HR MAX TEMP:  49;

WASHINGTON *   PTSUNNY   48  48 100 NW6       29.65S
$$

ABBREVIATIONS USED IN REMARKS
   TC - TEMPERATURES IN CELSIUS
  WCI - WIND CHILL INDEX
   HX - HEAT INDEX
  VSB - VISIBILITY
$$





USA.gov is the U.S. government's official web portal to all federal, state and local government web resources and services.